Location: Fours
(44.3167°N, 6.7000°E)
Time: 08:37:44
(UTC+00:00)

MINOTAUR-C DEB - Visible Passes

Search period start: 21 June 2021 00:00
Search period end: 01 July 2021 00:00
Orbit: 494 x 516 km, 97.4° (Epoch: 20 June)

Date Brightness Start Highest point End Pass type
(mag) Time Alt. Az. Time Alt. Az. Time Alt. Az.
21 Jun ? 00:50:06 14° W 00:50:06 14° W 00:51:41 10° WNW visible
21 Jun ? 22:57:08 26° E 22:57:40 27° ENE 23:00:54 10° N visible
22 Jun ? 00:31:55 21° W 00:31:55 21° W 00:34:30 10° NW visible
22 Jun ? 22:38:56 17° E 22:39:47 18° ENE 22:42:24 10° NNE visible
23 Jun ? 00:13:43 34° W 00:13:43 34° W 00:16:53 10° NNW visible
23 Jun ? 22:20:44 10° E 22:21:58 12° ENE 22:23:22 10° NE visible
23 Jun ? 23:55:32 58° W 23:55:32 58° W 23:59:05 10° NNW visible
24 Jun ? 23:37:20 82° ENE 23:37:20 82° ENE 23:41:06 10° N visible
25 Jun ? 23:19:08 48° E 23:19:19 48° ENE 23:23:00 10° N visible
26 Jun ? 00:53:56 12° W 00:53:56 12° W 00:55:10 10° WNW visible
26 Jun ? 23:00:57 29° E 23:01:24 30° ENE 23:04:44 10° N visible
27 Jun ? 00:35:44 20° W 00:35:44 20° W 00:38:08 10° NW visible
27 Jun ? 22:42:45 18° E 22:43:31 20° ENE 22:46:17 10° NNE visible
28 Jun ? 00:17:33 31° W 00:17:33 31° W 00:20:35 10° NNW visible
28 Jun ? 22:24:34 12° E 22:25:40 13° ENE 22:27:26 10° NE visible
28 Jun ? 23:59:21 51° W 23:59:21 51° W 00:02:47 10° NNW visible
29 Jun ? 23:41:10 84° NNW 23:41:10 84° NNW 23:44:51 10° NNW visible
30 Jun ? 23:22:58 54° E 23:23:02 54° ENE 23:26:45 10° N visible
